Location: Unspecified
(0.0000°N, 0.0000°E)
Time: 05:12:14
(UTC+02:00)

Atlas Centaur 2 - Visible Passes

Search period start: 22 October 2014 00:00
Search period end: 31 October 2014 23:00
Orbit: 460 x 1327 km, 30.4° (Epoch: 20 October)

Date Brightness Start Highest point End Pass type
(mag) Time Alt. Az. Time Alt. Az. Time Alt. Az.
22 Oct 2.1 05:49:28 79° SSE 05:49:36 79° SSE 05:56:11 10° ENE visible
23 Oct 2.3 05:49:26 63° NNE 05:49:26 63° NNE 05:55:04 10° NE visible
24 Oct 2.9 05:49:21 39° NNE 05:49:21 39° NNE 05:53:48 10° NE visible
25 Oct 3.6 05:49:12 25° NNE 05:49:12 25° NNE 05:52:23 10° NE visible
26 Oct 4.0 04:48:57 17° NNE 04:48:57 17° NNE 04:50:46 10° NNE visible
27 Oct 4.4 04:48:37 11° NNE 04:48:37 11° NNE 04:48:52 10° NNE visible
